CW9114 Weather Reports


Display with metric or nautical units.
time (UTC)temp
F
wind
direction
speed
MPH
gust
MPH
rain 1hr
in
rain 24hr
in
rain mn
in
humidity
%
barometer
mb
20260510010028 45 226 4.0 9.0 0.00 0.00 0.00 49 1009.0
20260510004520 46 300 2.0 13.0 0.00 0.00 0.00 48 1008.9
20260510003004 46 289 2.0 9.0 0.00 0.00 0.00 48 1008.8
20260510001505 46 288 2.0 9.0 0.00 0.00 0.00 49 1008.7
20260510000009 47 359 2.0 8.0 0.00 0.00 0.00 51 1008.5
20260509234507 47 349 2.0 11.0 0.00 0.00 0.00 51 1008.3
20260509233004 47 299 4.0 9.0 0.00 0.00 0.00 50 1008.2
20260509231503 47 356 1.0 7.0 0.00 0.00 0.00 53 1008.1
20260509230005 47 239 3.0 11.0 0.00 0.00 0.00 54 1008.0
20260509224506 47 297 1.0 6.0 0.00 0.00 0.00 56 1007.9
20260509223003 47 347 1.0 6.0 0.00 0.00 0.00 57 1007.6
20260509221507 47 314 2.0 11.0 0.00 0.00 0.00 57 1007.5
20260509220005 47 3 2.0 8.0 0.00 0.00 0.00 58 1007.2
20260509214507 47 357 4.0 8.0 0.00 0.00 0.00 57 1007.0
20260509213007 46 351 2.0 7.0 0.00 0.00 0.00 60 1006.8
20260509211512 46 359 3.0 9.0 0.00 0.00 0.00 59 1006.7
20260509210011 48 352 4.0 8.0 0.00 0.00 0.00 55 1006.4
20260509204507 49 360 2.0 8.0 0.00 0.00 0.00 52 1006.0
20260509203009 49 360 3.0 10.0 0.00 0.00 0.00 52 1005.8
20260509201506 49 360 5.0 9.0 0.00 0.00 0.00 50 1005.7
20260509200010 50 360 3.0 9.0 0.00 0.00 0.00 50 1005.3
20260509194509 49 360 3.0 9.0 0.00 0.00 0.00 53 1005.2
20260509193013 47 360 3.0 11.0 0.00 0.00 0.00 60 1005.0
20260509191512 48 360 6.0 11.0 0.00 0.00 0.00 57 1004.6
20260509190008 49 360 4.0 12.0 0.00 0.00 0.00 57 1003.9
20260509184520 51 360 4.0 12.0 0.00 0.00 0.00 48 1003.3
20260509183014 51 360 3.0 12.0 0.00 0.00 0.00 45 1002.8
20260509181509 54 360 4.0 8.0 0.00 0.00 0.00 43 1002.3
20260509180011 56 360 5.0 12.0 0.00 0.00 0.00 39 1001.9
20260509174511 56 360 2.0 17.0 0.00 0.00 0.00 31 1001.5
20260509173012 57 360 7.0 19.0 0.00 0.00 0.00 33 1001.4
20260509171521 57 360 3.0 13.0 0.00 0.00 0.00 31 1001.1
20260509170024 57 360 3.0 14.0 0.00 0.00 0.00 32 1000.8
20260509164513 58 360 5.0 16.0 0.00 0.00 0.00 31 1000.8
20260509163015 58 360 4.0 16.0 0.00 0.00 0.00 29 1000.3
20260509161510 57 360 7.0 16.0 0.00 0.00 0.00 29 1000.1
20260509160013 57 360 5.0 18.0 0.00 0.00 0.00 29 999.9
20260509154516 55 360 5.0 18.0 0.00 0.00 0.00 32 999.7
20260509153007 53 360 6.0 18.0 0.00 0.00 0.00 33 999.5
20260509151508 53 360 5.0 17.0 0.00 0.00 0.00 34 999.5
20260509150010 53 360 4.0 17.0 0.00 0.00 0.00 32 999.2
20260509144506 55 360 5.0 12.0 0.00 0.00 0.00 29 998.7
20260509143007 56 278 5.0 15.0 0.00 0.00 0.00 31 998.6
20260509141509 56 323 7.0 13.0 0.00 0.01 0.00 31 998.6
20260509140007 56 287 3.0 11.0 0.00 0.01 0.00 35 998.2
20260509134510 54 347 3.0 15.0 0.00 0.01 0.00 38 998.3
20260509133008 53 257 5.0 12.0 0.00 0.01 0.00 40 998.3
20260509131509 51 311 4.0 10.0 0.00 0.01 0.00 43 998.2
20260509130013 51 289 4.0 12.0 0.00 0.01 0.00 45 998.2
20260509124510 51 321 3.0 13.0 0.00 0.01 0.00 46 998.0
20260509123008 50 338 1.0 9.0 0.00 0.01 0.00 50 997.9
20260509121515 49 360 4.0 10.0 0.00 0.01 0.00 50 997.9
20260509120008 47 360 4.0 9.0 0.00 0.01 0.00 57 997.7
20260509114512 44 360 1.0 6.0 0.00 0.01 0.00 68 997.6
20260509113012 42 360 2.0 7.0 0.00 0.01 0.00 70 997.4
20260509111510 41 360 0.0 3.0 0.00 0.01 0.00 76 997.3
20260509110012 42 360 0.0 1.0 0.00 0.01 0.00 78 997.3
20260509104512 42 360 0.0 1.0 0.00 0.01 0.00 78 997.5
20260509103012 42 360 0.0 1.0 0.00 0.01 0.00 78 997.7
20260509101517 43 360 0.0 1.0 0.00 0.01 0.00 76 997.9
20260509100020 43 360 0.0 2.0 0.00 0.01 0.00 74 997.8
20260509094516 43 360 0.0 2.0 0.00 0.01 0.00 73 997.3
20260509093012 43 360 0.0 2.0 0.00 0.01 0.00 73 997.2
20260509091519 43 360 1.0 3.0 0.00 0.01 0.00 74 997.1
20260509090012 43 360 0.0 1.0 0.00 0.01 0.00 74 997.3
20260509084516 43 360 0.0 2.0 0.00 0.01 0.00 74 997.4
20260509083018 42 360 0.0 3.0 0.00 0.01 0.00 74 997.6
20260509081516 42 360 0.0 3.0 0.00 0.01 0.00 74 997.5
20260509080014 42 360 0.0 2.0 0.00 0.01 0.00 75 997.0
20260509074512 42 360 0.0 1.0 0.00 0.01 0.00 75 997.1
20260509073014 42 360 0.0 0.0 0.00 0.01 0.00 75 997.3
20260509071515 42 360 0.0 2.0 0.00 0.01 0.00 77 997.5
20260509070016 42 360 0.0 2.0 0.00 0.01 0.00 76 997.7
20260509064514 41 360 0.0 2.0 0.00 0.01 0.00 73 998.1
20260509063014 42 360 0.0 1.0 0.00 0.01 0.00 72 998.5
20260509061518 42 360 0.0 1.0 0.00 0.01 0.00 70 998.6
20260509060002 43 360 0.0 1.0 0.00 0.01 0.00 70 998.8
20260509054504 43 360 0.0 2.0 0.00 0.01 0.00 67 999.0
20260509053007 44 360 0.0 3.0 0.00 0.01 0.00 64 999.4
20260509051517 45 360 0.0 3.0 0.00 0.01 0.00 60 999.5
20260509050019 46 360 1.0 5.0 0.00 0.01 0.00 56 999.7
20260509044504 47 360 1.0 5.0 0.00 0.01 0.00 53 1000.1
20260509043004 48 360 1.0 5.0 0.00 0.01 0.00 49 1000.4
20260509041509 48 360 0.0 6.0 0.00 0.01 0.00 48 1000.7
20260509040016 47 360 1.0 5.0 0.00 0.01 0.00 52 1000.8
20260509034537 47 360 0.0 4.0 0.00 0.01 0.01 56 1001.2
20260509033004 46 360 0.0 3.0 0.00 0.01 0.01 60 1001.4
20260509031509 47 360 0.0 3.0 0.00 0.01 0.01 58 1001.7
20260509030011 46 360 0.0 4.0 0.00 0.01 0.01 58 1001.9
20260509024518 46 360 0.0 2.0 0.00 0.01 0.01 56 1002.0
20260509023023 47 360 0.0 3.0 0.00 0.01 0.01 55 1002.1
20260509021505 47 360 0.0 3.0 0.00 0.01 0.01 54 1002.2
20260509020008 48 360 1.0 3.0 0.00 0.01 0.01 50 1002.2
20260509014515 49 360 1.0 4.0 0.00 0.01 0.01 45 1002.1
20260509013019 49 360 1.0 4.0 0.00 0.01 0.01 48 1002.3
20260509011523 49 360 0.0 3.0 0.00 0.02 0.01 49 1002.5